Погода в Полтаве

Погода в Полтаве : погода сейчас, прогноз погоды и архив. Всё, что Вы хотите узнать о погоде в Полтаве!

Поиск расширенной информации на нашем сайте:

Полезная информация:

Другие новости

Новости СМИ2

Главная страница сайта

Новости сайта

03.07.2017

Напоминаем, что на нашем специализированном сайте Метеоцентр.Азия вы можете получить высокодетализированные автоматические прогнозы погоды по пунктам России, СНГ и мира в авиационном формате (включающие направление и скорость ветра, видимость, явления погоды, количество и форму облачности, нижнюю и верхнюю границу облачности).

Рекомендуем:

Погода в Полтаве - сегодня

Время (UTC), дата Ветер
(°,м/с) 
Видим.   Явления Облачность Т
(°С)
Тd
(°С)
f(%) Тe
(°С)
Pmin
(гПа)
dP
(гПа)
Po
(мм)
O2
(г/м3)
Тmin Tmax R s Состояние
почвы
12 15.07.19 130 (ЮВ) 10 км    8/8 1000 м верхняя 
[Cu med, cong|Ci fib]
+26.7 +7.5 30 +27  1006.7  -0.6  741  271           
15 15.07.19 330 (СЗ) 10 км    8/6 1000 м верхняя 
[Cu med, cong|Cs]
+27 +9.3 33 +28  1006.3  -0.4  741  270           
18 15.07.19 340 (С) 10 км    9/8 600 м кучево-дожд., верхняя 
[Cb cap|Cc]
+22.5 +11.9 51 +27  1007  0.5  742  274           
21 15.07.19 350 (С) 10 км    9/3 600 м кучево-дожд., верхняя 
[Cb calv|Cc]
+17.9 +13.1 73 +25  1007.6  0.3  742  278           
00 16.07.19 070 (В) 10 км    9/3 600 м верхняя 
[Sc|Cs]
+15 +11.9 82 +20  1007  -0.8  741  281           
03 16.07.19 030 (СВ) 10 км    9/8 600 м кучево-дожд., верхняя 
[Cb cap|Cs]
+14.6 +12.4 87 +21  1007.5  0.5  742  281           
06 16.07.19 020 (С) 10 км    8/4 600 м кучево-дожд., средняя 
[Cb cap|Ac As]
+18.3 +13.4 73 +26  1007.2  -0.1  741  277  +14.1         
09 16.07.19 030 (СВ) 10 км    9/4 600 м средняя, верхняя 
[Cu Sc|Ac trans|Cc]
+22.8 +11.9 50 +27  1006.7  -0.2  741  273           
12 16.07.19 270 (З) 10 км  гроза без осадков  9/3 600 м кучево-дожд., средняя, верхняя 
[Cb calv|Ac trans|Cc]
+24.3 +12.5 48 +29  1005.8  -0.8  741  272           
15 16.07.19 270 (З) 10 км  гроза без осадков{ливн. осадки}  10/8 300 м кучево-дожд., средняя 
[Cb cap|Ac cuf]
+17.9 +15.9 88 +30  1007.1  0.9  741  277           
18 16.07.19 330 (СЗ) 10 км  {гроза, ливн. осадки}  9/0 средняя, верхняя 
[Ac trans|Ci fib]
+17.8 +16.3 91 +30  1007.2  0.1  741  277    +25.1     
21 16.07.19 тихо ()   4000 м  дымка  4/0 верхняя 
[Ci fib]
+15.1 +14.6 97 +23  1007.5  0.1  742  280           
00 17.07.19 тихо ()   4000 м  дымка  ясно 
+14.1 +13.6 97 +21  1007.5  -0.1  741  281           
03 17.07.19 тихо ()   4000 м  туман поземный  3/0 средняя 
[Ac trans]
+14.2 +13.8 97 +21  1006.9  -0.5  741  281           
06 17.07.19 230 (ЮЗ) 10 км  {туман}  3/0 средняя 
[Ac trans]
+19.6 +15.6 78 +31  1006.8  0.2  741  275  +13  -2.6       
09 17.07.19 270 (З) 10 км    8/8 1000 м 
[Cu med, cong]
+23.8 +12.3 49 +28  1006.4  -0.1  741  272           
12 17.07.19 270 (З) 10 км    8/8 1000 м 
[Cu Sc]
+24.5 +9.4 38 +25  1005.8  -0.6  741  272           
15 17.07.19 250 (З) 10 км    4/3 1000 м средняя 
[Cu Sc|Ac trans]
+24.6 +7.2 33 +25  1005.7  -0.1  741  273           
18 17.07.19 230 (ЮЗ) 10 км    3/1 1000 м кучево-дожд., верхняя 
[Cb calv|Cs]
+20.4 +10.5 53 +22  1006.9  0.9  741  276           
21 17.07.19 тихо ()   10 км    3/0 средняя 
[Ac trans]
+17.9 +11.3 65 +21  1007.1  0.1  741  278           
00 18.07.19 230 (ЮЗ) 10 км    6/3 1000 м средняя 
[Sc|Ac trans]
+15.8 +11.4 75 +20  1007.3  741  280           
03 18.07.19 230 (ЮЗ) 10 км    1/0 средняя 
[Ac trans]
+13.5 +10.6 83 +17  1008.1  0.7  742  283           
06 18.07.19 270 (З) 10 км    4/3 600 м верхняя 
[Sc|Ci fib]
+17.4 +11.1 66 +21  1008.7  0.8  743  279  +13.3  +2.7       
09 18.07.19 250 (З) 10 км    8/8 1000 м 
[Cu hum]
+20.4 +8.2 45 +20  1009.1  0.6  743  277           
12 18.07.19 240 (ЮЗ) 10 км    6/6 1000 м 
[Cu hum]
+22 +8.4 42 +22  1009.4  0.4  743  276           
Время (UTC), дата Ветер
(°,м/с) 
Видим.   Явления Облачность Т
(°С)
Тd
(°С)
f(%) Тe
(°С)
Pmin
(гПа)
dP
(гПа)
Po
(мм)
O2
(г/м3)
Тmin Tmax R s Состояние
почвы

Для получения пояснительной информации подведите курсор к названию столбца.

ПОГОДА в Полтаве - архив

Всё, что Вы хотите узнать о погоде в Полтаве - удобно и подробно!

Выберите нужную дату (начиная с 1 января 2018* года) и нажмите кнопку "Найти".
Будут отображены архивные сводки погоды по пункту Полтава, начиная с указанной даты.


Отображать данные в формате CSV (для использования в таблицах Excel)


Внимание! Наш архив погоды предназначен исключительно для личного некоммерческого использования в познавательных целях. Если Вам необходимы официальные справки о состоянии погоды (для производственных, юридических, коммерческих и т.п. целей), обращайтесь в органы Росгидромета.

*Примечание: данная дата относится к архиву по метеостанциям СССР (Россия, СНГ, Балтия).
Архив по метеостанциям Зарубежной Европы и Азии (кроме Китая) хранится 10 дней, по другим регионам земного шара (Китай, Африка, Америка, Австралия, Океания) - 1 день.

Полтава - район местоположения метеостанции


Название, широта, долгота, высота метеостанции:
Полтава 49.6°ш. 34.6°д. 160 м над ур. моря [Украина]

Дополнительная информация

В oтличие oт бoльшинства пoгoдных сайтoв мы публикуем пoдрoбную метеoинфoрмацию в детальнoм прoфессиoнальнoм фoрмате.

Характеристики температуры и влажнoсти вoздуха измеряются на высoте 2 м в тени вдали oт зданий и деревьев.
Скoрoсть ветра измеряется на высoте 10 м (на урoвне рoста челoвека скoрoсть ветра ниже в 1.5-2 раза). Если метеoстанция нахoдится в гoрoде или в лесу, тo скoрoсть ветра занижена на 2-4 м/с пo сравнению с oткрытым местoм. Скoрoсть ветра над акватoриями крупных рек и oзёр, а также на вершинах хoлмoв на 2-5 м/с выше, чем в oбычных услoвиях.
Атмoсфернoе давление в разных тoчках местнoсти мoжет значительнo oтличаться oт давления на метеoстанции, в зависимoсти oт услoвий рельефа (при пoдъёме на 10 м давление пoнижается примернo на 1 мм рт.ст.).